SCP
0 0 0 0 0 0 0 0 0 0 0 1 1 1 1 1 1 1 1 -0 1 1 1 0 1 1 0 0 0 0 0 0 0 0 0 0 0 -0 -0 -0 -0 -0 -0 -0 -0 -0 -0 -0 -0
0 0 0 0 0 0 0 0 0 0 0 0 1 1 0 1 1 1 0 0 0 1 1 0 0 0 0 0 0 0 0 0 -0 -0 0 0 0 0 0 -0 -0 -0 -0 -0 -0 -0 -0 -0 -0
0 0 -0 0 0 0 0 0 0 0 0 0 1 1 1 1 0 0 0 0 0 0 -0 0 0 0 0 0 0 0 0 0 0 0 0 0 0 0 0 0 -0 -0 -0 -0 -0 -0 -0 -0 -0
0 0 0 0 -0 0 0 0 0 0 0 0 0 1 1 1 1 1 0 0 0 0 0 0 0 0 0 0 0 0 0 0 0 0 0 0 0 0 0 0 0 -0 -0 -0 -0 -0 -0 -0 0
0 0 0 0 0 0 0 0 0 0 0 0 0 0 1 0 0 0 0 0 0 0 1 0 0 0 0 0 0 0 0 0 0 0 0 0 0 0 0 0 0 0 0 0 -0 -0 -0 0 -0
0 -0 0 0 0 0 0 0 0 0 0 0 0 0 1 1 0 0 0 0 0 1 1 1 0 0 0 0 0 0 0 0 0 0 -0 0 0 0 0 0 0 0 0 0 0 0 -0 -0 0
-0 -0 0 -0 0 0 0 0 -0 -0 -0 0 0 0 0 0 0 0 0 0 0 0 0 0 0 0 0 0 0 0 0 0 0 0 0 0 0 0 0 0 0 0 0 0 0 -0 -0 -0 0
-0 0 0 -0 0 0 0 0 0 -0 0 0 0 0 0 0 0 0 0 0 0 0 0 0 0 0 0 0 0 0 0 0 0 0 0 0 0 0 0 0 0 0 0 -0 -0 0 -0 0 0
0 0 -0 0 0 0 0 0 0 0 0 0 0 0 -0 0 0 0 0 0 0 0 0 0 0 0 0 0 0 0 0 0 0 0 0 0 0 0 0 0 0 -0 -0 -0 -0 -0 0 0 0
-0 -0 0 0 0 0 0 0 0 0 0 0 -0 -0 -0 0 0 0 0 0 0 0 0 0 0 0 0 0 0 0 0 0 0 0 0 0 0 0 0 0 -0 -0 -0 -0 -0 0 -0 -0 0
0 -0 0 0 0 0 -0 0 0 -0 -0 0 -0 -0 0 -0 0 0 0 0 0 0 0 0 0 0 0 0 0 0 0 0 0 0 0 0 0 0 0 0 0 0 -0 0 0 0 0 0 0
-0 -0 0 0 0 0 0 0 0 0 0 0 -0 0 0 0 0 0 0 0 0 0 0 0 0 0 0 0 0 0 0 -0 -0 0 0 0 0 0 0 0 0 0 0 0 0 0 0 0 0
-0 -0 0 0 0 -0 0 0 0 0 0 -0 -0 0 0 0 0 0 0 0 0 0 0 0 0 0 0 0 0 -0 -0 -0 -0 -0 0 0 0 0 0 0 0 0 0 0 0 0 0 0 0
-0 -0 -0 0 0 0 0 0 0 0 0 0 0 0 0 0 0 0 0 -0 -0 0 0 0 0 0 0 0 0 -0 -0 -0 0 0 0 0 0 0 0 0 0 0 0 0 0 0 0 0 0
-0 -0 -0 -0 0 0 -0 -0 0 0 0 0 0 0 0 0 0 -0 -0 -0 -0 -0 0 0 -0 -0 -0 -0 -0 -0 -0 0 -0 -0 0 0 0 0 0 0 0 0 0 0 0 0 0 0 0
0 -0 -0 -0 -0 0 -0 -0 0 0 -0 -0 0 0 -0 0 0 -0 0 -0 0 0 0 0 0 -0 -0 0 -0 -0 -0 -0 -0 0 0 0 0 0 0 0 0 0 0 0 0 0 0 0 0
-0 -0 0 0 0 -0 -0 0 0 -0 -0 -0 0 0 -0 0 0 0 0 0 0 0 0 0 0 -0 -0 -0 -0 -0 -0 -0 -0 -0 0 0 0 0 0 0 0 0 0 0 0 0 0 0 0
-0 -0 -0 0 -0 0 -0 -0 0 -0 -0 -0 -0 -0 0 0 0 -0 -0 -0 0 -0 -0 -0 -0 -0 -0 -0 -0 -0 -0 -0 -0 -0 0 0 -0 0 -0 0 0 0 0 0 0 0 0 0 0
0 0 0 0 0 -0 -0 -0 -0 -0 -0 -0 -0 -0 0 -0 -0 -0 -0 -0 -0 -0 -0 -0 -0 -0 0 -0 0 -0 -0 -0 -0 0 0 0 0 0 -0 0 0 0 0 0 0 0 0 0 0
0 -0 -0 0 0 -0 0 -0 0 -0 -0 -0 -0 -0 -0 -0 -0 -0 -0 -0 -0 -0 -0 -0 -0 -0 -0 0 -0 -0 -0 -0 -0 0 0 0 0 0 0 0 0 0 0 0 0 0 0 0 0
-0 0 0 0 0 0 -0 -0 0 -0 -0 -0 -0 -0 -0 -0 -0 -0 -0 -0 -0 -0 -0 -0 -0 -0 -0 0 -0 -0 -0 0 0 0 0 0 0 0 0 0 0 0 0 0 0 0 0 0 0
0 0 0 0 0 0 0 0 0 0 0 -0 -0 -0 -0 -0 -0 -0 -0 -0 -0 -0 -0 -0 -0 -0 -0 -0 0 -0 0 0 0 0 0 0 0 0 0 0 0 0 0 0 0 0 0 0 0
0 0 0 0 0 0 0 0 0 0 0 0 -0 -0 -0 -0 -0 -0 -0 -0 -0 -0 -0 -0 -0 -0 -0 -0 0 0 0 0 0 0 0 0 0 0 0 0 0 0 0 0 0 0 0 0 0
0 0 0 0 0 -0 0 0 0 0 0 0 0 0 -0 -0 -0 -0 -0 -0 -0 -0 -0 -0 -0 -0 -0 -0 0 0 0 0 0 0 0 0 0 0 0 0 0 0 0 0 0 0 0 0 0
0 0 0 0 0 0 0 0 0 0 0 0 0 0 -0 0 0 0 -0 -0 -0 -0 0 0 -0 0 0 -0 -0 0 0 0 0 0 0 0 0 0 0 0 0 0 0 0 0 0 0 0 0
0 0 0 0 0 0 0 0 0 0 0 0 0 0 0 0 0 -0 -0 0 0 0 0 0 0 0 -0 0 0 0 0 0 0 0 0 0 0 0 0 0 0 0 0 0 0 0 0 0 0
0 0 0 0 0 0 0 0 -0 0 0 0 0 0 0 0 0 0 -0 -0 0 0 0 0 0 0 0 0 0 0 0 0 0 0 0 0 0 0 0 0 0 0 0 0 0 0 0 0 0
0 0 0 0 0 0 0 0 0 0 0 0 0 0 0 0 0 0 0 -0 -0 -0 0 0 0 0 0 0 0 0 0 0 0 0 0 0 0 0 0 0 0 0 0 0 0 0 0 0 0
0 0 0 0 0 0 0 0 0 0 0 0 0 0 0 0 0 0 0 0 0 0 0 0 0 0 0 0 0 0 0 0 0 0 0 0 0 0 0 0 0 0 0 0 0 0 0 0 0
-0 0 0 0 0 0 0 0 0 0 0 0 0 0 0 0 0 0 0 0 0 0 0 0 0 0 0 0 1 1 0 0 0 0 0 0 0 0 0 0 0 0 0 0 0 0 0 0 0
Wind_Speed_500mb
5 6 7 7 13 12 26 12 7 10 12 4 5 6 10 13 18 7 3 27 36 54 62 65 64 63 63 62 58 54 49 44 42 43 46 46 46 46 49 51 52 52 51 51 47 42 40 40 38
6 7 7 7 15 21 21 5 16 7 4 5 8 6 12 6 7 4 12 33 41 54 59 63 69 67 64 62 57 53 49 48 50 51 49 48 50 52 53 53 53 51 49 46 42 41 36 35 33
10 12 14 9 16 21 15 10 10 7 3 12 11 6 1 7 3 6 8 29 45 65 63 64 72 68 64 60 58 54 53 55 55 52 50 52 55 57 58 57 54 51 47 42 40 38 34 31 29
7 9 10 17 24 8 16 6 12 5 6 7 5 15 9 8 6 9 13 35 48 60 61 66 71 70 67 63 59 58 59 59 56 52 55 60 60 59 58 55 54 49 44 41 39 35 31 28 25
8 10 14 17 14 11 12 10 10 10 7 7 10 13 11 3 5 8 18 33 58 52 56 64 67 67 63 62 61 60 61 58 57 58 62 63 62 59 56 51 50 48 44 40 37 32 27 25 24
15 11 15 15 7 13 6 9 7 9 8 6 8 16 10 8 11 15 20 30 36 53 60 67 66 63 57 53 58 62 62 62 62 65 65 64 62 58 54 50 48 46 43 38 33 31 29 26 25
21 12 13 13 8 5 6 2 13 9 7 6 1 4 13 11 17 17 18 20 27 46 72 77 73 63 63 51 60 60 61 65 65 67 65 63 61 58 53 49 45 43 39 34 31 30 29 25 26
12 12 10 8 6 2 7 1 2 13 6 5 3 5 10 21 27 19 18 18 23 40 47 74 70 65 61 58 53 56 58 67 68 65 65 61 58 54 51 45 41 35 33 30 30 27 27 24 24
8 13 10 7 8 8 3 10 4 6 9 8 0 4 7 36 27 24 18 17 21 46 65 71 77 84 78 80 54 55 61 60 61 62 61 56 53 48 42 38 33 30 29 26 22 22 23 24 24
16 11 6 4 8 13 15 15 8 13 15 10 9 12 26 32 30 17 16 19 23 35 61 70 81 79 78 70 68 51 55 59 60 57 57 49 45 37 36 35 29 26 23 20 18 17 18 21 19
7 17 7 14 17 20 23 13 12 15 14 9 15 27 30 26 17 14 23 28 34 44 70 73 82 84 79 77 80 68 59 61 58 54 52 47 44 40 37 35 30 26 21 18 14 12 11 14 18
16 18 17 15 9 14 12 3 7 11 9 5 24 36 29 21 18 13 18 32 51 58 71 77 79 89 85 74 83 82 58 57 58 57 58 49 43 38 32 30 28 25 21 14 9 2 4 14 19
19 16 19 12 13 12 5 7 2 4 2 24 34 27 25 21 21 20 24 47 52 65 78 75 67 69 74 72 73 69 56 48 55 60 51 45 37 35 33 30 26 25 22 12 7 4 6 13 18
5 16 9 2 9 8 7 7 8 8 19 24 29 24 24 23 23 25 31 41 44 53 50 63 71 69 63 67 68 65 49 58 51 51 48 43 37 34 32 27 28 24 18 14 12 7 5 8 13
12 17 9 12 10 4 9 18 9 19 24 25 26 24 23 27 28 24 30 39 41 46 47 68 66 70 79 56 45 38 38 41 46 43 45 40 36 33 32 29 24 23 21 20 17 13 9 8 13
13 13 16 16 15 5 13 10 15 24 25 22 22 30 28 28 28 27 29 35 42 43 53 57 57 54 45 29 34 34 35 45 41 47 42 34 38 35 35 32 30 29 25 26 21 15 11 11 7
15 18 6 14 6 6 15 11 13 23 26 24 23 26 26 28 32 35 39 42 47 50 52 57 59 48 37 31 37 38 39 45 44 48 47 44 40 40 38 38 34 30 32 28 27 24 15 13 6
14 20 16 12 17 19 18 23 12 30 29 26 28 28 31 34 38 38 45 48 50 55 60 53 47 43 42 36 39 38 38 42 49 49 44 41 44 43 41 40 37 33 35 35 34 30 24 12 9
10 16 15 10 6 9 11 18 9 31 33 31 29 33 35 39 38 39 48 54 56 58 59 54 51 46 39 38 39 40 41 42 49 54 51 45 46 46 43 40 35 39 39 42 37 32 25 15 13
13 16 17 7 13 9 11 20 5 25 33 33 33 35 37 38 42 45 49 57 61 62 60 55 51 47 44 39 38 38 39 41 50 58 54 53 54 47 42 40 37 38 44 43 40 33 21 15 18
18 20 8 12 12 13 19 27 10 17 26 28 32 32 36 45 49 52 55 59 62 67 65 59 53 47 45 41 39 38 33 38 54 60 60 61 54 49 43 42 42 45 45 46 42 37 29 19 18
21 10 14 14 14 17 4 11 7 11 20 29 35 40 42 45 48 49 56 61 64 65 61 60 55 52 49 47 43 45 42 42 47 59 61 54 49 45 47 46 49 49 48 49 45 42 32 27 17
7 3 7 11 18 12 14 14 9 7 17 27 37 46 48 49 54 58 62 63 62 60 61 58 56 54 52 51 51 45 47 41 39 52 52 50 48 49 52 52 52 52 51 50 48 47 41 43 30
11 11 7 9 12 19 19 15 8 9 7 4 10 38 49 52 55 58 58 54 57 57 58 58 58 57 56 55 58 58 55 51 46 53 53 53 50 50 55 56 52 50 51 52 52 50 50 47 37
20 14 11 12 13 14 5 13 18 11 6 13 16 17 27 51 57 56 55 58 58 60 60 61 61 59 58 58 58 59 60 60 58 50 54 57 59 56 56 54 53 56 56 60 49 51 52 44 32
29 24 11 10 9 4 8 12 5 6 8 19 18 21 24 34 52 61 59 59 57 57 57 61 62 60 57 59 58 58 54 56 58 58 53 59 62 58 47 51 54 60 58 53 57 50 44 38 34
15 19 8 4 1 7 9 11 17 3 1 4 8 7 8 19 31 47 58 54 51 49 52 54 51 49 50 58 54 54 53 53 56 53 52 50 52 58 48 58 55 48 64 67 62 48 37 29 16
13 19 12 10 9 12 7 11 2 7 4 4 8 9 6 4 11 22 34 45 47 44 41 42 45 44 42 45 46 46 43 41 46 47 47 45 45 47 53 52 43 54 71 65 53 46 42 32 29
13 15 8 6 7 8 7 8 2 6 2 4 4 7 7 4 3 9 16 23 27 31 33 33 33 33 32 32 32 34 31 30 37 41 41 35 39 39 44 38 61 64 64 55 36 39 36 36 30
19 21 22 14 13 6 7 16 9 13 9 9 11 9 6 2 8 10 14 17 20 21 23 23 22 23 24 24 24 25 32 33 34 32 35 35 34 37 40 54 58 55 51 45 48 32 31 32 31
Wind_Direction_500mb
244 246 192 192 236 235 252 234 337 205 219 81 289 228 242 33 347 350 247 182 174 173 174 173 174 171 169 168 166 166 165 164 161 154 146 143 140 136 133 131 130 126 121 120 121 116 110 100 92
214 188 196 236 250 236 235 121 227 8 308 181 143 202 225 81 9 325 281 179 179 176 172 171 176 173 170 168 169 170 168 165 157 150 147 145 140 137 134 131 130 128 127 123 119 112 106 100 93
203 179 249 247 246 256 279 92 350 1 237 220 166 75 79 85 222 190 277 181 182 182 174 175 175 175 172 171 172 171 167 160 154 153 151 144 141 137 131 129 129 129 129 123 117 111 107 96 87
201 204 225 250 243 258 283 0 349 186 159 212 186 107 90 28 353 306 199 194 184 181 172 176 173 173 173 172 171 169 165 159 156 153 149 146 140 133 131 129 129 131 127 123 116 109 100 88 83
207 244 247 248 257 263 253 290 308 217 175 160 201 125 103 83 84 183 182 188 182 178 172 175 174 173 168 168 168 165 160 158 156 154 149 145 138 136 132 134 132 129 126 120 115 106 97 92 87
230 277 242 239 246 239 272 316 238 236 181 154 176 139 102 161 154 178 189 187 184 179 181 177 175 167 163 164 163 159 160 159 158 154 149 144 140 136 134 135 134 126 122 118 111 103 96 90 81
273 265 293 289 300 236 16 257 221 240 227 162 213 180 134 168 170 188 192 195 195 194 183 169 166 169 165 161 160 156 157 158 158 154 146 144 140 138 139 138 133 128 123 117 110 101 91 82 72
268 272 259 252 307 87 64 288 230 233 204 215 283 193 164 187 171 181 189 204 224 202 160 152 159 162 154 152 156 156 158 158 156 150 144 144 143 143 143 139 135 132 127 120 111 97 84 76 64
244 261 272 301 292 23 51 315 189 227 189 176 124 9 180 173 176 180 185 196 204 171 170 169 171 162 159 150 152 157 159 156 153 147 144 144 145 147 140 144 144 140 132 124 114 96 79 61 52
245 270 321 333 304 292 289 287 243 216 193 200 146 99 153 151 166 170 190 206 195 187 175 183 167 162 144 145 151 154 154 157 156 154 154 151 151 147 157 150 149 148 143 131 111 90 70 59 50
205 270 357 292 279 278 273 270 205 227 220 212 177 156 162 157 162 171 166 171 181 183 173 164 157 152 154 149 149 152 161 155 158 168 168 166 162 161 160 155 160 161 155 137 125 95 61 37 29
259 260 288 287 304 285 273 200 209 246 348 286 156 164 162 156 152 169 186 178 166 159 158 146 147 150 154 159 153 163 149 173 170 178 180 175 172 170 166 164 166 168 168 167 137 103 24 22 7
247 286 298 277 277 264 195 193 290 159 55 128 139 147 150 148 144 149 167 157 158 155 154 155 156 152 146 157 150 156 164 170 178 185 182 182 182 183 181 182 173 185 188 171 202 248 1 352 348
324 287 316 188 156 189 231 163 216 137 130 135 142 148 149 144 149 152 159 162 160 160 162 164 154 154 153 155 161 164 168 186 187 188 190 191 194 196 199 195 202 204 199 206 221 241 297 324 337
286 267 189 168 166 170 244 199 206 150 157 157 159 148 157 159 154 154 157 157 158 157 157 154 154 157 157 156 176 186 190 191 192 195 197 198 201 204 208 213 219 222 223 229 237 256 261 293 305
254 251 251 144 184 139 225 47 128 165 173 172 169 164 179 168 173 168 161 157 159 154 160 165 169 158 177 184 185 189 197 199 199 199 197 205 207 211 217 224 227 230 234 239 243 244 237 260 289
207 256 256 152 164 230 237 336 128 176 181 182 181 182 186 182 182 185 173 165 165 164 166 169 175 184 196 197 198 204 207 206 205 206 209 214 221 223 226 230 236 240 236 232 235 238 228 255 262
218 233 217 180 178 238 257 263 193 187 193 197 189 189 188 190 190 186 179 177 178 175 177 182 190 196 200 205 210 214 212 213 213 215 218 229 230 231 230 232 236 228 230 230 231 232 241 223 216
256 257 263 117 156 271 258 278 227 193 196 202 194 191 196 195 189 186 183 183 183 183 187 195 200 203 206 210 212 216 220 217 221 220 224 229 230 228 225 227 235 224 228 233 232 236 238 235 252
247 235 233 216 161 263 297 291 247 194 207 206 203 196 197 189 188 189 188 191 193 193 197 201 206 210 214 217 217 217 220 221 225 227 230 234 231 229 223 234 239 233 231 237 231 230 222 223 254
233 250 228 283 186 237 276 264 170 201 214 210 214 211 200 195 194 197 195 198 201 205 206 206 210 213 216 214 219 216 219 222 227 233 234 239 246 235 224 234 240 239 238 235 232 232 232 230 240
237 233 258 251 244 248 249 272 235 199 217 218 216 213 207 201 201 202 204 206 208 210 212 216 218 219 218 216 218 217 220 227 235 238 242 246 251 234 230 236 241 240 234 233 231 234 232 225 229
251 158 265 258 248 269 200 256 148 195 234 228 222 218 213 207 204 205 207 210 211 213 215 218 220 221 220 219 218 223 225 230 232 242 250 256 257 237 234 236 239 236 230 231 233 236 242 248 253
138 185 209 245 253 244 248 248 210 206 247 233 222 221 220 213 210 212 213 210 212 213 215 217 217 219 219 221 229 229 232 229 226 244 251 256 251 242 240 240 240 237 232 234 235 243 256 252 265
215 220 227 213 215 245 148 234 262 295 246 296 289 269 230 219 215 214 209 210 210 212 214 218 220 218 222 225 232 237 240 240 239 243 252 254 254 256 244 241 239 233 231 235 242 251 251 252 259
207 212 234 231 206 186 168 235 180 49 260 290 285 285 255 221 215 215 213 213 214 212 213 220 222 221 222 228 237 241 247 245 244 251 256 255 263 278 242 243 237 235 241 236 236 238 240 256 263
172 211 251 241 58 260 243 235 249 60 127 274 307 300 222 205 209 213 218 218 217 217 218 221 220 221 221 235 236 244 250 246 244 252 260 266 265 269 252 243 238 245 236 233 238 237 245 255 247
257 149 186 213 227 230 184 258 224 121 113 35 29 39 69 136 197 210 212 217 220 220 221 221 225 225 221 231 239 241 251 259 254 255 262 267 272 275 258 256 239 239 235 234 239 238 245 236 266
172 193 228 271 264 256 243 245 145 202 204 193 304 330 358 30 141 181 190 201 208 210 214 222 223 219 219 224 228 235 234 243 258 262 267 280 272 263 259 254 245 235 231 231 235 249 250 285 280
236 203 208 240 205 233 293 269 233 275 266 243 235 255 273 87 116 144 155 160 167 178 190 197 200 202 208 212 218 224 244 260 266 266 265 263 255 249 250 250 242 237 233 232 239 241 280 276 264
Wind_Speed_850mb
5 6 7 7 13 12 26 12 7 10 12 4 5 6 10 13 18 7 3 27 36 54 62 65 64 63 63 62 58 54 49 44 42 43 46 46 46 46 49 51 52 52 51 51 47 42 40 40 38
6 7 7 7 15 21 21 5 16 7 4 5 8 6 12 6 7 4 12 33 41 54 59 63 69 67 64 62 57 53 49 48 50 51 49 48 50 52 53 53 53 51 49 46 42 41 36 35 33
10 12 14 9 16 21 15 10 10 7 3 12 11 6 1 7 3 6 8 29 45 65 63 64 72 68 64 60 58 54 53 55 55 52 50 52 55 57 58 57 54 51 47 42 40 38 34 31 29
7 9 10 17 24 8 16 6 12 5 6 7 5 15 9 8 6 9 13 35 48 60 61 66 71 70 67 63 59 58 59 59 56 52 55 60 60 59 58 55 54 49 44 41 39 35 31 28 25
8 10 14 17 14 11 12 10 10 10 7 7 10 13 11 3 5 8 18 33 58 52 56 64 67 67 63 62 61 60 61 58 57 58 62 63 62 59 56 51 50 48 44 40 37 32 27 25 24
15 11 15 15 7 13 6 9 7 9 8 6 8 16 10 8 11 15 20 30 36 53 60 67 66 63 57 53 58 62 62 62 62 65 65 64 62 58 54 50 48 46 43 38 33 31 29 26 25
21 12 13 13 8 5 6 2 13 9 7 6 1 4 13 11 17 17 18 20 27 46 72 77 73 63 63 51 60 60 61 65 65 67 65 63 61 58 53 49 45 43 39 34 31 30 29 25 26
12 12 10 8 6 2 7 1 2 13 6 5 3 5 10 21 27 19 18 18 23 40 47 74 70 65 61 58 53 56 58 67 68 65 65 61 58 54 51 45 41 35 33 30 30 27 27 24 24
8 13 10 7 8 8 3 10 4 6 9 8 0 4 7 36 27 24 18 17 21 46 65 71 77 84 78 80 54 55 61 60 61 62 61 56 53 48 42 38 33 30 29 26 22 22 23 24 24
16 11 6 4 8 13 15 15 8 13 15 10 9 12 26 32 30 17 16 19 23 35 61 70 81 79 78 70 68 51 55 59 60 57 57 49 45 37 36 35 29 26 23 20 18 17 18 21 19
7 17 7 14 17 20 23 13 12 15 14 9 15 27 30 26 17 14 23 28 34 44 70 73 82 84 79 77 80 68 59 61 58 54 52 47 44 40 37 35 30 26 21 18 14 12 11 14 18
16 18 17 15 9 14 12 3 7 11 9 5 24 36 29 21 18 13 18 32 51 58 71 77 79 89 85 74 83 82 58 57 58 57 58 49 43 38 32 30 28 25 21 14 9 2 4 14 19
19 16 19 12 13 12 5 7 2 4 2 24 34 27 25 21 21 20 24 47 52 65 78 75 67 69 74 72 73 69 56 48 55 60 51 45 37 35 33 30 26 25 22 12 7 4 6 13 18
5 16 9 2 9 8 7 7 8 8 19 24 29 24 24 23 23 25 31 41 44 53 50 63 71 69 63 67 68 65 49 58 51 51 48 43 37 34 32 27 28 24 18 14 12 7 5 8 13
12 17 9 12 10 4 9 18 9 19 24 25 26 24 23 27 28 24 30 39 41 46 47 68 66 70 79 56 45 38 38 41 46 43 45 40 36 33 32 29 24 23 21 20 17 13 9 8 13
13 13 16 16 15 5 13 10 15 24 25 22 22 30 28 28 28 27 29 35 42 43 53 57 57 54 45 29 34 34 35 45 41 47 42 34 38 35 35 32 30 29 25 26 21 15 11 11 7
15 18 6 14 6 6 15 11 13 23 26 24 23 26 26 28 32 35 39 42 47 50 52 57 59 48 37 31 37 38 39 45 44 48 47 44 40 40 38 38 34 30 32 28 27 24 15 13 6
14 20 16 12 17 19 18 23 12 30 29 26 28 28 31 34 38 38 45 48 50 55 60 53 47 43 42 36 39 38 38 42 49 49 44 41 44 43 41 40 37 33 35 35 34 30 24 12 9
10 16 15 10 6 9 11 18 9 31 33 31 29 33 35 39 38 39 48 54 56 58 59 54 51 46 39 38 39 40 41 42 49 54 51 45 46 46 43 40 35 39 39 42 37 32 25 15 13
13 16 17 7 13 9 11 20 5 25 33 33 33 35 37 38 42 45 49 57 61 62 60 55 51 47 44 39 38 38 39 41 50 58 54 53 54 47 42 40 37 38 44 43 40 33 21 15 18
18 20 8 12 12 13 19 27 10 17 26 28 32 32 36 45 49 52 55 59 62 67 65 59 53 47 45 41 39 38 33 38 54 60 60 61 54 49 43 42 42 45 45 46 42 37 29 19 18
21 10 14 14 14 17 4 11 7 11 20 29 35 40 42 45 48 49 56 61 64 65 61 60 55 52 49 47 43 45 42 42 47 59 61 54 49 45 47 46 49 49 48 49 45 42 32 27 17
7 3 7 11 18 12 14 14 9 7 17 27 37 46 48 49 54 58 62 63 62 60 61 58 56 54 52 51 51 45 47 41 39 52 52 50 48 49 52 52 52 52 51 50 48 47 41 43 30
11 11 7 9 12 19 19 15 8 9 7 4 10 38 49 52 55 58 58 54 57 57 58 58 58 57 56 55 58 58 55 51 46 53 53 53 50 50 55 56 52 50 51 52 52 50 50 47 37
20 14 11 12 13 14 5 13 18 11 6 13 16 17 27 51 57 56 55 58 58 60 60 61 61 59 58 58 58 59 60 60 58 50 54 57 59 56 56 54 53 56 56 60 49 51 52 44 32
29 24 11 10 9 4 8 12 5 6 8 19 18 21 24 34 52 61 59 59 57 57 57 61 62 60 57 59 58 58 54 56 58 58 53 59 62 58 47 51 54 60 58 53 57 50 44 38 34
15 19 8 4 1 7 9 11 17 3 1 4 8 7 8 19 31 47 58 54 51 49 52 54 51 49 50 58 54 54 53 53 56 53 52 50 52 58 48 58 55 48 64 67 62 48 37 29 16
13 19 12 10 9 12 7 11 2 7 4 4 8 9 6 4 11 22 34 45 47 44 41 42 45 44 42 45 46 46 43 41 46 47 47 45 45 47 53 52 43 54 71 65 53 46 42 32 29
13 15 8 6 7 8 7 8 2 6 2 4 4 7 7 4 3 9 16 23 27 31 33 33 33 33 32 32 32 34 31 30 37 41 41 35 39 39 44 38 61 64 64 55 36 39 36 36 30
19 21 22 14 13 6 7 16 9 13 9 9 11 9 6 2 8 10 14 17 20 21 23 23 22 23 24 24 24 25 32 33 34 32 35 35 34 37 40 54 58 55 51 45 48 32 31 32 31
Wind_Direction_850mb
244 246 192 192 236 235 252 234 337 205 219 81 289 228 242 33 347 350 247 182 174 173 174 173 174 171 169 168 166 166 165 164 161 154 146 143 140 136 133 131 130 126 121 120 121 116 110 100 92
214 188 196 236 250 236 235 121 227 8 308 181 143 202 225 81 9 325 281 179 179 176 172 171 176 173 170 168 169 170 168 165 157 150 147 145 140 137 134 131 130 128 127 123 119 112 106 100 93
203 179 249 247 246 256 279 92 350 1 237 220 166 75 79 85 222 190 277 181 182 182 174 175 175 175 172 171 172 171 167 160 154 153 151 144 141 137 131 129 129 129 129 123 117 111 107 96 87
201 204 225 250 243 258 283 0 349 186 159 212 186 107 90 28 353 306 199 194 184 181 172 176 173 173 173 172 171 169 165 159 156 153 149 146 140 133 131 129 129 131 127 123 116 109 100 88 83
207 244 247 248 257 263 253 290 308 217 175 160 201 125 103 83 84 183 182 188 182 178 172 175 174 173 168 168 168 165 160 158 156 154 149 145 138 136 132 134 132 129 126 120 115 106 97 92 87
230 277 242 239 246 239 272 316 238 236 181 154 176 139 102 161 154 178 189 187 184 179 181 177 175 167 163 164 163 159 160 159 158 154 149 144 140 136 134 135 134 126 122 118 111 103 96 90 81
273 265 293 289 300 236 16 257 221 240 227 162 213 180 134 168 170 188 192 195 195 194 183 169 166 169 165 161 160 156 157 158 158 154 146 144 140 138 139 138 133 128 123 117 110 101 91 82 72
268 272 259 252 307 87 64 288 230 233 204 215 283 193 164 187 171 181 189 204 224 202 160 152 159 162 154 152 156 156 158 158 156 150 144 144 143 143 143 139 135 132 127 120 111 97 84 76 64
244 261 272 301 292 23 51 315 189 227 189 176 124 9 180 173 176 180 185 196 204 171 170 169 171 162 159 150 152 157 159 156 153 147 144 144 145 147 140 144 144 140 132 124 114 96 79 61 52
245 270 321 333 304 292 289 287 243 216 193 200 146 99 153 151 166 170 190 206 195 187 175 183 167 162 144 145 151 154 154 157 156 154 154 151 151 147 157 150 149 148 143 131 111 90 70 59 50
205 270 357 292 279 278 273 270 205 227 220 212 177 156 162 157 162 171 166 171 181 183 173 164 157 152 154 149 149 152 161 155 158 168 168 166 162 161 160 155 160 161 155 137 125 95 61 37 29
259 260 288 287 304 285 273 200 209 246 348 286 156 164 162 156 152 169 186 178 166 159 158 146 147 150 154 159 153 163 149 173 170 178 180 175 172 170 166 164 166 168 168 167 137 103 24 22 7
247 286 298 277 277 264 195 193 290 159 55 128 139 147 150 148 144 149 167 157 158 155 154 155 156 152 146 157 150 156 164 170 178 185 182 182 182 183 181 182 173 185 188 171 202 248 1 352 348
324 287 316 188 156 189 231 163 216 137 130 135 142 148 149 144 149 152 159 162 160 160 162 164 154 154 153 155 161 164 168 186 187 188 190 191 194 196 199 195 202 204 199 206 221 241 297 324 337
286 267 189 168 166 170 244 199 206 150 157 157 159 148 157 159 154 154 157 157 158 157 157 154 154 157 157 156 176 186 190 191 192 195 197 198 201 204 208 213 219 222 223 229 237 256 261 293 305
254 251 251 144 184 139 225 47 128 165 173 172 169 164 179 168 173 168 161 157 159 154 160 165 169 158 177 184 185 189 197 199 199 199 197 205 207 211 217 224 227 230 234 239 243 244 237 260 289
207 256 256 152 164 230 237 336 128 176 181 182 181 182 186 182 182 185 173 165 165 164 166 169 175 184 196 197 198 204 207 206 205 206 209 214 221 223 226 230 236 240 236 232 235 238 228 255 262
218 233 217 180 178 238 257 263 193 187 193 197 189 189 188 190 190 186 179 177 178 175 177 182 190 196 200 205 210 214 212 213 213 215 218 229 230 231 230 232 236 228 230 230 231 232 241 223 216
256 257 263 117 156 271 258 278 227 193 196 202 194 191 196 195 189 186 183 183 183 183 187 195 200 203 206 210 212 216 220 217 221 220 224 229 230 228 225 227 235 224 228 233 232 236 238 235 252
247 235 233 216 161 263 297 291 247 194 207 206 203 196 197 189 188 189 188 191 193 193 197 201 206 210 214 217 217 217 220 221 225 227 230 234 231 229 223 234 239 233 231 237 231 230 222 223 254
233 250 228 283 186 237 276 264 170 201 214 210 214 211 200 195 194 197 195 198 201 205 206 206 210 213 216 214 219 216 219 222 227 233 234 239 246 235 224 234 240 239 238 235 232 232 232 230 240
237 233 258 251 244 248 249 272 235 199 217 218 216 213 207 201 201 202 204 206 208 210 212 216 218 219 218 216 218 217 220 227 235 238 242 246 251 234 230 236 241 240 234 233 231 234 232 225 229
251 158 265 258 248 269 200 256 148 195 234 228 222 218 213 207 204 205 207 210 211 213 215 218 220 221 220 219 218 223 225 230 232 242 250 256 257 237 234 236 239 236 230 231 233 236 242 248 253
138 185 209 245 253 244 248 248 210 206 247 233 222 221 220 213 210 212 213 210 212 213 215 217 217 219 219 221 229 229 232 229 226 244 251 256 251 242 240 240 240 237 232 234 235 243 256 252 265
215 220 227 213 215 245 148 234 262 295 246 296 289 269 230 219 215 214 209 210 210 212 214 218 220 218 222 225 232 237 240 240 239 243 252 254 254 256 244 241 239 233 231 235 242 251 251 252 259
207 212 234 231 206 186 168 235 180 49 260 290 285 285 255 221 215 215 213 213 214 212 213 220 222 221 222 228 237 241 247 245 244 251 256 255 263 278 242 243 237 235 241 236 236 238 240 256 263
172 211 251 241 58 260 243 235 249 60 127 274 307 300 222 205 209 213 218 218 217 217 218 221 220 221 221 235 236 244 250 246 244 252 260 266 265 269 252 243 238 245 236 233 238 237 245 255 247
257 149 186 213 227 230 184 258 224 121 113 35 29 39 69 136 197 210 212 217 220 220 221 221 225 225 221 231 239 241 251 259 254 255 262 267 272 275 258 256 239 239 235 234 239 238 245 236 266
172 193 228 271 264 256 243 245 145 202 204 193 304 330 358 30 141 181 190 201 208 210 214 222 223 219 219 224 228 235 234 243 258 262 267 280 272 263 259 254 245 235 231 231 235 249 250 285 280
236 203 208 240 205 233 293 269 233 275 266 243 235 255 273 87 116 144 155 160 167 178 190 197 200 202 208 212 218 224 244 260 266 266 265 263 255 249 250 250 242 237 233 232 239 241 280 276 264